Ionia, MI

6:53 AM EST on November 13, 2019 (GMT -0500)
Ionia

Weather History for KY70 - September, 2019

Change the Weather History Date:

Monday, September 23, 2019

  Actual Average (KGRR) Record (KGRR)
Temperature  
Mean Temperature 64 °F -  
Max Temperature 71 °F 65 °F 96 °F (2017)
Min Temperature 57 °F 44 °F 28 °F (1974)
Degree Days  
Heating Degree Days 1    
Growing Degree Days 14 (Base 50)    
Moisture  
Dew Point 57 °F    
Average Humidity 75    
Maximum Humidity 96    
Minimum Humidity 47    
Precipitation  
Precipitation 0.00 in - - ()
Sea Level Pressure  
Sea Level Pressure 29.89 in    
Wind  
Wind Speed 9 mph ()    
Max Wind Speed 22 mph    
Max Gust Speed 26 mph    
Visibility 10.0 miles    
Events Rain    
Averages and records for this station are not official NWS values.
T = Trace of Precipitation, MM = Missing Value Source: Averaged Metar Reports

Daily Weather History Graph

Daily Weather History Graph

Search for Another Location

Airport or City:

Astronomy

Sep. 23, 2019 Rise Set
Actual Time 7:28 AM EDT 7:36 PM EDT
Civil Twilight 7:00 AM EDT 8:04 PM EDT
Nautical Twilight 6:26 AM EDT 8:37 PM EDT
Astronomical Twilight 5:53 AM EDT 9:11 PM EDT
Moon 1:01 AM EDT (9/23) 4:38 PM EDT (9/23)
Length of Visible Light 13h 04m
Length of Day
12h 07m
Waning Crescent, 33% of the Moon is Illuminated
Sep 23
Waning Crescent
Sep 28
New
Oct 5
First Quarter
Oct 13
Full
Oct 21
Last Quarter

Hourly Weather History & Observations

Time (EDT) Temp. Dew Point Humidity Pressure Visibility Wind Dir Wind Speed Gust Speed Precip Events Conditions
12:15 AM 70.2 °F 68.4 °F 94% 29.78 in 10.0 mi West 10.4 mph - N/A   Overcast
12:16 AM 70.2 °F 68.4 °F 94% 29.78 in 10.0 mi WSW 11.5 mph 19.6 mph N/A   Overcast
12:35 AM 70.3 °F 68.5 °F 94% 29.79 in 10.0 mi West 12.7 mph - N/A   Overcast
12:58 AM 70.0 °F 67.6 °F 92% 29.79 in 10.0 mi West 6.9 mph 11.5 mph N/A Rain Light Rain
1:16 AM 69.4 °F 67.3 °F 93% 29.79 in 10.0 mi West 8.1 mph - N/A   Overcast
1:35 AM 69.1 °F 66.9 °F 93% 29.79 in 10.0 mi West 12.7 mph 16.1 mph N/A   Overcast
1:55 AM 68.7 °F 66.6 °F 93% 29.80 in 10.0 mi West 8.1 mph - N/A   Overcast
1:56 AM 68.7 °F 66.4 °F 92% 29.80 in 10.0 mi West 8.1 mph - N/A   Overcast
2:19 AM 68.2 °F 65.8 °F 92% 29.81 in 10.0 mi West 6.9 mph - N/A   Overcast
2:37 AM 67.8 °F 65.5 °F 92% 29.81 in 10.0 mi West 8.1 mph - N/A   Overcast
2:55 AM 67.5 °F 65.3 °F 93% 29.81 in 10.0 mi West 8.1 mph - N/A   Overcast
3:15 AM 67.5 °F 65.3 °F 93% 29.82 in 10.0 mi West 8.1 mph - N/A   Overcast
3:35 AM 67.3 °F 64.8 °F 92% 29.81 in 10.0 mi West 11.5 mph - N/A   Overcast
3:58 AM 66.6 °F 64.4 °F 93% 29.81 in 10.0 mi West 6.9 mph - N/A   Mostly Cloudy
4:16 AM 66.6 °F 64.6 °F 93% 29.81 in 10.0 mi West 6.9 mph - N/A   Overcast
4:35 AM 66.2 °F 64.2 °F 93% 29.81 in 10.0 mi West 8.1 mph - N/A   Overcast
4:36 AM 66.2 °F 64.0 °F 93% 29.81 in 10.0 mi West 8.1 mph - N/A   Overcast
4:55 AM 65.7 °F 63.9 °F 94% 29.81 in 10.0 mi WSW 6.9 mph - N/A   Mostly Cloudy
4:56 AM 65.5 °F 63.7 °F 94% 29.81 in 10.0 mi WSW 6.9 mph - N/A   Mostly Cloudy
5:19 AM 65.3 °F 63.7 °F 94% 29.82 in 10.0 mi West 6.9 mph - N/A   Scattered Clouds
5:37 AM 64.8 °F 63.1 °F 94% 29.82 in 10.0 mi WSW 5.8 mph - N/A   Scattered Clouds
5:55 AM 64.4 °F 62.8 °F 94% 29.83 in 10.0 mi West 4.6 mph - N/A   Scattered Clouds
5:56 AM 64.4 °F 62.8 °F 94% 29.83 in 10.0 mi West 4.6 mph - N/A   Scattered Clouds
6:15 AM 64.8 °F 63.5 °F 96% 29.83 in 10.0 mi WSW 3.5 mph - N/A   Overcast
6:35 AM 64.0 °F 62.8 °F 96% 29.84 in 10.0 mi WSW 4.6 mph - N/A   Mostly Cloudy
6:58 AM 64.8 °F 63.5 °F 96% 29.84 in 10.0 mi WSW 5.8 mph - N/A   Overcast
7:16 AM 64.8 °F 63.5 °F 96% 29.85 in 10.0 mi WSW 6.9 mph - N/A   Overcast
7:35 AM 64.8 °F 63.5 °F 96% 29.85 in 10.0 mi West 10.4 mph - N/A   Overcast
7:36 AM 64.9 °F 63.7 °F 96% 29.85 in 10.0 mi West 10.4 mph - N/A   Overcast
7:55 AM 65.3 °F 63.0 °F 92% 29.86 in 10.0 mi West 11.5 mph 17.3 mph N/A   Overcast
7:56 AM 65.3 °F 62.8 °F 92% 29.86 in 10.0 mi West 11.5 mph 17.3 mph N/A   Overcast
8:19 AM 64.9 °F 61.3 °F 88% 29.87 in 10.0 mi West 10.4 mph - N/A   Overcast
8:37 AM 64.4 °F 60.8 °F 88% 29.88 in 10.0 mi West 8.1 mph 17.3 mph N/A   Mostly Cloudy
8:55 AM 64.9 °F 61.0 °F 87% 29.89 in 10.0 mi West 8.1 mph - N/A   Scattered Clouds
8:56 AM 65.1 °F 61.2 °F 87% 29.89 in 10.0 mi West 9.2 mph - N/A   Mostly Cloudy
9:15 AM 65.3 °F 60.8 °F 85% 29.89 in 10.0 mi West 9.2 mph 18.4 mph N/A   Overcast
9:16 AM 65.3 °F 60.8 °F 85% 29.89 in 10.0 mi West 9.2 mph 18.4 mph N/A   Overcast
9:35 AM 65.8 °F 60.4 °F 83% 29.90 in 10.0 mi West 11.5 mph 17.3 mph N/A   Overcast
9:40 AM 65.5 °F 59.9 °F 82% 29.90 in 10.0 mi West 13.8 mph 17.3 mph N/A   Overcast
9:58 AM 65.5 °F 58.6 °F 79% 29.90 in 10.0 mi West 13.8 mph 20.7 mph N/A   Overcast
10:16 AM 66.2 °F 58.6 °F 77% 29.91 in 10.0 mi West 15.0 mph 19.6 mph N/A   Overcast
10:35 AM 67.6 °F 56.7 °F 68% 29.91 in 10.0 mi WNW 15.0 mph 19.6 mph N/A   Mostly Cloudy
10:55 AM 67.8 °F 55.4 °F 64% 29.92 in 10.0 mi West 16.1 mph 21.9 mph N/A   Mostly Cloudy
11:19 AM 68.4 °F 54.0 °F 60% 29.92 in 10.0 mi WNW 18.4 mph 23.0 mph N/A   Scattered Clouds
11:37 AM 67.6 °F 54.1 °F 62% 29.92 in 10.0 mi WNW 13.8 mph 18.4 mph N/A   Mostly Cloudy
11:55 AM 67.8 °F 53.6 °F 60% 29.92 in 10.0 mi West 12.7 mph 18.4 mph N/A   Mostly Cloudy
11:56 AM 68.2 °F 53.8 °F 60% 29.92 in 10.0 mi West 16.1 mph - N/A   Mostly Cloudy
12:15 PM 66.9 °F 54.0 °F 63% 29.92 in 10.0 mi West 11.5 mph 20.7 mph N/A   Scattered Clouds
12:35 PM 69.1 °F 52.7 °F 56% 29.92 in 10.0 mi West 15.0 mph 21.9 mph N/A   Scattered Clouds
12:58 PM 69.8 °F 49.5 °F 48% 29.93 in 10.0 mi WNW 16.1 mph 25.3 mph N/A   Scattered Clouds
1:16 PM 70.0 °F 49.5 °F 48% 29.93 in 10.0 mi WNW 16.1 mph 20.7 mph N/A   Scattered Clouds
1:35 PM 68.7 °F 49.3 °F 50% 29.93 in 10.0 mi West 16.1 mph 25.3 mph N/A   Mostly Cloudy
1:55 PM 70.7 °F 50.2 °F 48% 29.92 in 10.0 mi West 17.3 mph 25.3 mph N/A   Mostly Cloudy
2:18 PM 70.9 °F 50.7 °F 49% 29.92 in 10.0 mi WNW 16.1 mph 24.2 mph N/A   Mostly Cloudy
2:36 PM 70.5 °F 51.3 °F 50% 29.92 in 10.0 mi WNW 13.8 mph 20.7 mph N/A   Mostly Cloudy
2:55 PM 70.9 °F 49.6 °F 47% 29.92 in 10.0 mi West 21.9 mph 26.5 mph N/A   Scattered Clouds
3:15 PM 70.5 °F 50.7 °F 49% 29.92 in 10.0 mi West 20.7 mph 26.5 mph N/A   Scattered Clouds
3:39 PM 69.4 °F 50.7 °F 51% 29.92 in 10.0 mi West 20.7 mph 25.3 mph N/A   Mostly Cloudy
3:57 PM 70.9 °F 51.1 °F 49% 29.93 in 10.0 mi WNW 18.4 mph - N/A   Scattered Clouds
4:15 PM 70.3 °F 50.5 °F 49% 29.93 in 10.0 mi WNW 19.6 mph 24.2 mph N/A   Scattered Clouds
4:35 PM 70.7 °F 49.8 °F 48% 29.93 in 10.0 mi West 18.4 mph 23.0 mph N/A   Scattered Clouds
4:36 PM 70.7 °F 49.8 °F 48% 29.93 in 10.0 mi West 17.3 mph 23.0 mph N/A   Scattered Clouds
4:55 PM 71.2 °F 51.1 °F 49% 29.93 in 10.0 mi West 11.5 mph - N/A   Scattered Clouds
4:59 PM 71.1 °F 50.5 °F 48% 29.93 in 10.0 mi WNW 15.0 mph - N/A   Mostly Cloudy
5:17 PM 70.7 °F 50.0 °F 48% 29.94 in 10.0 mi West 16.1 mph 21.9 mph N/A   Scattered Clouds
5:35 PM 69.8 °F 49.1 °F 48% 29.94 in 10.0 mi West 16.1 mph 23.0 mph N/A   Scattered Clouds
5:55 PM 69.1 °F 49.1 °F 49% 29.94 in 10.0 mi West 12.7 mph 19.6 mph N/A   Scattered Clouds
6:15 PM 68.9 °F 50.2 °F 51% 29.95 in 10.0 mi West 15.0 mph 20.7 mph N/A   Clear
6:38 PM 68.2 °F 51.1 °F 54% 29.95 in 10.0 mi West 9.2 mph - N/A   Scattered Clouds
6:56 PM 67.5 °F 51.8 °F 57% 29.95 in 10.0 mi West 8.1 mph - N/A   Scattered Clouds
7:15 PM 66.2 °F 51.3 °F 59% 29.95 in 10.0 mi West 10.4 mph - N/A   Clear
7:35 PM 65.5 °F 50.9 °F 59% 29.96 in 10.0 mi West 6.9 mph - N/A   Clear
7:59 PM 64.0 °F 51.3 °F 63% 29.96 in 10.0 mi West 6.9 mph - N/A   Clear
8:17 PM 63.0 °F 52.0 °F 67% 29.97 in 10.0 mi West 5.8 mph - N/A   Scattered Clouds
8:35 PM 62.6 °F 52.2 °F 69% 29.97 in 10.0 mi West 5.8 mph - N/A   Mostly Cloudy
8:36 PM 62.8 °F 52.2 °F 68% 29.97 in 10.0 mi West 6.9 mph - N/A   Mostly Cloudy
8:55 PM 62.4 °F 52.3 °F 70% 29.97 in 10.0 mi West 5.8 mph - N/A   Scattered Clouds
8:56 PM 62.2 °F 52.3 °F 70% 29.97 in 10.0 mi West 5.8 mph - N/A   Scattered Clouds
9:15 PM 60.4 °F 52.7 °F 76% 29.98 in 10.0 mi WSW 5.8 mph - N/A   Clear
9:38 PM 59.4 °F 53.1 °F 80% 29.98 in 10.0 mi WSW 5.8 mph - N/A   Clear
9:56 PM 59.7 °F 53.8 °F 81% 29.99 in 10.0 mi West 3.5 mph - N/A   Clear
10:15 PM 60.1 °F 53.4 °F 79% 29.99 in 10.0 mi West 3.5 mph - N/A   Clear
10:35 PM 59.5 °F 54.3 °F 83% 29.99 in 10.0 mi West 4.6 mph - N/A   Clear
10:59 PM 58.5 °F 54.1 °F 86% 29.99 in 10.0 mi West 3.5 mph - N/A   Clear
11:17 PM 57.7 °F 53.6 °F 86% 29.99 in 10.0 mi West 3.5 mph - N/A   Clear
11:35 PM 58.3 °F 54.5 °F 87% 29.99 in 10.0 mi West 4.6 mph - N/A   Clear
11:55 PM 57.7 °F 54.1 °F 88% 29.99 in 10.0 mi WSW 3.5 mph - N/A   Clear
11:56 PM 57.7 °F 54.1 °F 88% 29.99 in 10.0 mi WSW 3.5 mph - N/A   Clear